User: anonymous   Login
Location: Chandrammap?lem
(16.9200°N, 81.0051°E)
Time: 20:13:22
(UTC+00:00)
Language:

Cosmos 2082 - Orbit

View from above orbital plane
View from above orbital plane
View from above satellite
View from above satellite

Ground track
Ground track

The orbit data is extracted from the following two-line orbital elements,

1 20624U 90046A   24197.47212976  .00000361  00000-0  21209-3 0  9991
2 20624  71.0386 202.2543 0013506  36.8586 323.3463 14.14603312762453
Epoch (UTC): 15 July 2024 11:19:52
Eccentricity: 0.0013506
inclination: 71.0386°
perigee height: 834 km
apogee height: 853 km
right ascension of ascending node: 202.2543°
argument of perigee: 36.8586°
revolutions per day: 14.14603312
mean anomaly at epoch: 323.3463°
orbit number at epoch: 76245

The dashed part of the orbit path shows where the satellite is in the earth's shadow,  

DLR